Regional Weather Roundup
Issued by NWS Sterling, VA

Home | Current Version | Previous Version | Graphics & Text | Print | Product List | Glossary On
Versions: 1 2 3 4 5 6 7 8 9 10 11 12 13 14 15 16 17 18 19 20 21 22 23 24 25 26 27
000
ASUS41 KLWX 251810
RWRLWX

REGIONAL WEATHER ROUNDUP
NATIONAL WEATHER SERVICE BALTIMORE MD/WASHINGTON DC
200 PM EDT THU AUG 25 2016

Note: "FAIR" indicates few or no clouds below 12,000 feet
with no significant weather and/or obstructions to visibility.
 TC=TEMPERATURE CELSIUS

 * =Non NWS site. Station does not report precipitation (e.g. rain,
    snow, etc.), thunder, or fog.

DCZ001-MDZ009-015-VAZ040>042-051-053>054-251900-
WASHINGTON METRO

CITY           SKY/WX    TMP DP  RH WIND       PRES   REMARKS
WASHINGTON NAT CLOUDY    87  73  62 S13       30.06F HX  94
DULLES         CLOUDY    88  70  55 S12       30.05F HX  93
ANDREWS AFB    MOSUNNY   86  71  60 S10       30.06F HX  90
FT BELVOIR     MOSUNNY   85  71  62 S7        30.06F HX  91
QUANTICO       CLOUDY    86  74  67 S10       30.06F HX  94
LEESBURG*      PTSUNNY   90  73  58 W7        30.07S HX  98
MANASSAS*      SUNNY     84  73  70 S8        30.06F HX  91
GAITHERSBURG*  PTSUNNY   86  72  62 W3        30.10F HX  92

$$

MDZ006>007-011-014-251900-
BALTIMORE METRO

CITY           SKY/WX    TMP DP  RH WIND       PRES   REMARKS
BWI AIRPORT    PTSUNNY   86  70  58 SW6       30.05F HX  90
MD SCIENCE CTR   N/A     86  68  54 MISG      30.05F
MARTIN STATE   MOSUNNY   84  75  74 SE10      30.07F HX  92
ANNAPOLIS      PTSUNNY   85  71  63 S9        30.05F HX  90
FORT MEADE*    MOSUNNY  N/A N/A N/A S7        30.08F

$$

MDZ012-015-019>023-251900-
MARYLAND EASTERN SHORE

CITY           SKY/WX    TMP DP  RH WIND       PRES   REMARKS
OCEAN CITY     SUNNY     82  72  71 S9G20     30.11F
SALISBURY      SUNNY     85  68  56 S10G18    30.09F
EASTON*        MOSUNNY   88  75  66 S14       30.11F HX  97

$$

MDZ017>025-251900-
SOUTHERN MARYLAND

CITY           SKY/WX    TMP DP  RH WIND       PRES   REMARKS
PATUXENT RIVER PTSUNNY   85  68  56 S9        30.07F
ST INIGOES     MOSUNNY   86  71  60 S9        30.07F HX  91
LEONARDTOWN*   MOSUNNY   84  68  58 S7        30.09F

$$

MDZ003>005-251900-
NORTH CENTRAL MARYLAND

CITY           SKY/WX    TMP DP  RH WIND       PRES   REMARKS
FREDERICK*     PTSUNNY   88  75  66 W8        30.08F HX  97
HAGERSTOWN APT CLOUDY    86  69  56 SW8       30.05F HX  90

$$

MDZ501>502-251900-
WESTERN MARYLAND

CITY           SKY/WX    TMP DP  RH WIND       PRES   REMARKS
OAKLAND*         N/A     73  68  83 W5        30.20S
CUMBERLAND*    MOSUNNY   90  68  48 W6        30.10S HX  93

$$

VAZ025>031-251900-
SHENANDOAH VALLEY

CITY           SKY/WX    TMP DP  RH WIND       PRES   REMARKS
WINCHESTER*    CLOUDY    88  72  58 W8        30.08S HX  94
FRONT ROYAL*   FAIR      86  73  66 S5        30.07F HX  93
LURAY*         FAIR      88  72  58 S5        30.09F HX  94
NEW MARKET*    FAIR     N/A N/A N/A CALM      30.07F
STAUNTON*      MOSUNNY   87  71  58 S3        30.13S HX  93
WAYNESBORO*    FAIR      84  71  65 SW6       30.14S

$$

WVZ021-048>050-054>055-251900-
EASTERN WEST VIRGINIA PANHANDLE

CITY           SKY/WX    TMP DP  RH WIND       PRES   REMARKS
MARTINSBURG    PTSUNNY   84  71  65 S7        30.05F
PETERSBURG*    PTSUNNY   88  73  60 SW5       30.08F HX  95

$$

VAZ036>039-050-251900-
CENTRAL FOOTHILLS

CITY           SKY/WX    TMP DP  RH WIND       PRES   REMARKS
CHARLOTTESVILL PTSUNNY   89  72  56 VRB5      30.08F HX  96
CULPEPER*      CLOUDY    85  76  72 S5        30.08S HX  94
ORANGE*          N/A     91  72  52 SE7       30.09F HX  98
GORDONSVILLE*  FAIR      88  75  66 S8        30.07F HX  97
WARRENTON*     FAIR      87  69  55 S7        30.07F HX  91

$$

VAZ055>057-251900-
NORTH AND CENTRAL PIEDMONT

CITY           SKY/WX    TMP DP  RH WIND       PRES   REMARKS
FREDERICKSBRG*   N/A     87  72  61 SW6       30.06F HX  94
STAFFORD*      CLOUDY    85  70  60 S7        30.11F HX  90

$$

NCZ024-NYZ072-PAZ021-071-VAZ022-071-251900-
OTHER REGIONAL OBSERVATIONS

CITY           SKY/WX    TMP DP  RH WIND       PRES   REMARKS
NEW YORK CITY    N/A     86  64  48 MISG        N/A
PHILADELPHIA   PTSUNNY   87  69  54 S13       30.05F HX  91
PITTSBURGH     PTSUNNY   83  68  60 SW7       30.07F
ROANOKE        MOSUNNY   90  71  53 NW9       30.15F HX  96
RICHMOND       PTSUNNY   89  66  46 S14       30.08F HX  91
RALEIGH        PTSUNNY   89  66  46 VRB3      30.14F HX  91

$$

ANZ530>537-251900-
MARINE OBSERVATIONS

STATION/POSITION TIME  TEMP    WIND        PRES
                       AIR SEA DIR/SP/G
                 (UTC) (F)     (DEG/KT/KT) (MB)
THOMAS PT LIGHT  1800   81 81  180/ 16/ 18 1019.0F
BALT KEY BRIDGE  1748   83     160/  7/  9 1017.5F
COVE POINT       1748   82     190/ 13/ 16 1018.9F
LEWISETTA        1742   84 82  210/ 11/ 13 1018.2F
SOLOMONS ISLAND  1742   84 84  190/  9/ 14   N/A
PINEY POINT      1748          210/  7/ 11   N/A

$$





USA.gov is the U.S. government's official web portal to all federal, state and local government web resources and services.